QPF
0.00 0.00 0.00 0.00 0.00 0.00 0.00 0.00 0.00 0.00 0.00 0.00 0.00 0.00 0.00 0.00 0.00 0.00 0.00 0.01 0.09 0.02 0.00 0.00 0.01 0.00 0.00 0.00 0.00 0.00 0.00 0.00 0.00 0.00 0.00 0.00 0.00 0.00 0.00 0.00 0.00 0.00 0.00 0.00 0.00
0.00 0.00 0.00 0.00 0.00 0.00 0.00 0.00 0.00 0.00 0.00 0.00 0.00 0.00 0.00 0.00 0.00 0.00 0.00 0.01 0.01 0.00 0.00 0.00 0.00 0.00 0.00 0.00 0.00 0.00 0.00 0.00 0.00 0.00 0.00 0.00 0.00 0.00 0.00 0.00 0.00 0.00 0.00 0.00 0.00
0.00 0.00 0.00 0.00 0.00 0.00 0.00 0.00 0.00 0.00 0.00 0.00 0.00 0.00 0.00 0.00 0.00 0.00 0.00 0.00 0.05 0.01 0.01 0.00 0.00 0.00 0.00 0.00 0.00 0.00 0.00 0.00 0.00 0.00 0.00 0.00 0.00 0.00 0.00 0.00 0.00 0.00 0.00 0.00 0.00
0.00 0.00 0.00 0.00 0.00 0.00 0.00 0.00 0.00 0.00 0.00 0.00 0.00 0.00 0.00 0.00 0.00 0.00 0.00 0.00 0.00 0.00 0.00 0.00 0.00 0.00 0.02 0.00 0.00 0.00 0.01 0.00 0.00 0.00 0.00 0.00 0.00 0.00 0.00 0.00 0.00 0.00 0.00 0.00 0.00
0.00 0.00 0.00 0.00 0.00 0.00 0.00 0.00 0.00 0.00 0.00 0.00 0.00 0.00 0.00 0.00 0.00 0.00 0.00 0.00 0.00 0.00 0.00 0.00 0.00 0.00 0.00 0.00 0.00 0.02 0.03 0.00 0.00 0.00 0.00 0.00 0.00 0.00 0.00 0.00 0.00 0.00 0.00 0.00 0.00
0.01 0.00 0.00 0.00 0.00 0.00 0.00 0.00 0.00 0.00 0.00 0.00 0.00 0.00 0.00 0.00 0.00 0.00 0.00 0.00 0.00 0.00 0.00 0.00 0.00 0.00 0.00 0.00 0.04 0.02 0.02 0.00 0.00 0.00 0.00 0.00 0.00 0.00 0.00 0.00 0.00 0.00 0.00 0.00 0.00
0.00 0.00 0.00 0.00 0.00 0.00 0.00 0.00 0.00 0.00 0.00 0.00 0.00 0.00 0.00 0.00 0.00 0.00 0.00 0.00 0.00 0.00 0.00 0.00 0.00 0.00 0.00 0.00 0.08 0.06 0.07 0.00 0.00 0.00 0.00 0.00 0.00 0.00 0.00 0.00 0.00 0.00 0.00 0.00 0.00
0.01 0.00 0.00 0.00 0.00 0.00 0.00 0.00 0.00 0.00 0.00 0.00 0.00 0.00 0.00 0.00 0.00 0.00 0.00 0.00 0.00 0.00 0.00 0.00 0.00 0.00 0.00 0.01 0.01 0.01 0.03 0.02 0.00 0.00 0.00 0.00 0.00 0.00 0.00 0.00 0.00 0.00 0.00 0.00 0.00
0.00 0.00 0.00 0.00 0.00 0.00 0.00 0.00 0.00 0.00 0.00 0.00 0.00 0.00 0.00 0.00 0.00 0.00 0.00 0.00 0.00 0.00 0.00 0.00 0.00 0.00 0.00 0.00 0.00 0.00 0.00 0.00 0.00 0.02 0.00 0.00 0.00 0.00 0.00 0.00 0.00 0.00 0.00 0.00 0.00
0.00 0.00 0.00 0.00 0.00 0.00 0.00 0.00 0.00 0.00 0.00 0.00 0.00 0.00 0.00 0.00 0.00 0.00 0.00 0.00 0.00 0.00 0.00 0.00 0.00 0.00 0.00 0.00 0.00 0.00 0.00 0.00 0.00 0.00 0.00 0.00 0.00 0.00 0.00 0.00 0.00 0.00 0.00 0.00 0.00
0.00 0.00 0.00 0.00 0.00 0.00 0.00 0.00 0.00 0.00 0.00 0.00 0.00 0.00 0.00 0.00 0.00 0.00 0.00 0.00 0.00 0.00 0.00 0.00 0.00 0.00 0.00 0.00 0.00 0.00 0.00 0.00 0.00 0.00 0.00 0.00 0.00 0.00 0.00 0.00 0.00 0.00 0.00 0.00 0.00
0.00 0.00 0.00 0.00 0.00 0.00 0.00 0.00 0.00 0.00 0.00 0.00 0.00 0.00 0.00 0.00 0.00 0.00 0.00 0.00 0.00 0.00 0.00 0.00 0.00 0.00 0.00 0.00 0.00 0.00 0.00 0.00 0.00 0.00 0.00 0.00 0.00 0.00 0.00 0.00 0.00 0.00 0.00 0.00 0.00
0.00 0.00 0.00 0.00 0.00 0.00 0.00 0.00 0.00 0.00 0.00 0.00 0.00 0.00 0.00 0.00 0.00 0.00 0.00 0.00 0.00 0.00 0.00 0.00 0.00 0.00 0.00 0.00 0.00 0.00 0.00 0.00 0.00 0.00 0.00 0.00 0.00 0.00 0.00 0.01 0.02 0.00 0.01 0.00 0.00
0.00 0.00 0.00 0.00 0.00 0.00 0.00 0.00 0.00 0.00 0.00 0.00 0.00 0.00 0.00 0.00 0.00 0.00 0.00 0.00 0.00 0.00 0.00 0.00 0.00 0.00 0.00 0.00 0.00 0.00 0.00 0.00 0.00 0.00 0.00 0.00 0.00 0.00 0.00 0.00 0.00 0.01 0.01 0.01 0.00
0.00 0.00 0.00 0.00 0.00 0.00 0.00 0.00 0.00 0.00 0.00 0.00 0.00 0.00 0.00 0.00 0.00 0.00 0.00 0.00 0.00 0.00 0.00 0.00 0.00 0.00 0.00 0.00 0.00 0.00 0.00 0.00 0.00 0.00 0.00 0.00 0.00 0.00 0.00 0.00 0.00 0.00 0.00 0.01 0.01
0.00 0.00 0.00 0.00 0.00 0.00 0.00 0.00 0.00 0.00 0.00 0.00 0.00 0.00 0.00 0.00 0.00 0.00 0.00 0.00 0.00 0.00 0.00 0.00 0.00 0.00 0.00 0.00 0.00 0.00 0.00 0.00 0.00 0.00 0.00 0.00 0.00 0.00 0.00 0.00 0.00 0.00 0.00 0.02 0.06
0.00 0.00 0.00 0.00 0.00 0.00 0.00 0.00 0.00 0.00 0.00 0.00 0.00 0.00 0.00 0.00 0.00 0.00 0.00 0.00 0.00 0.00 0.00 0.00 0.00 0.00 0.00 0.00 0.00 0.00 0.00 0.00 0.00 0.00 0.00 0.00 0.00 0.00 0.00 0.00 0.00 0.00 0.00 0.03 0.08
0.00 0.00 0.00 0.00 0.00 0.00 0.00 0.00 0.00 0.00 0.00 0.00 0.00 0.00 0.00 0.00 0.00 0.00 0.00 0.00 0.00 0.00 0.00 0.00 0.00 0.00 0.00 0.00 0.00 0.00 0.00 0.00 0.00 0.00 0.00 0.00 0.00 0.00 0.00 0.00 0.00 0.00 0.02 0.08 0.12
0.00 0.00 0.00 0.00 0.00 0.00 0.00 0.00 0.00 0.00 0.00 0.00 0.00 0.00 0.00 0.00 0.00 0.00 0.00 0.00 0.00 0.00 0.00 0.00 0.00 0.00 0.00 0.00 0.00 0.00 0.00 0.00 0.00 0.00 0.00 0.00 0.00 0.00 0.00 0.00 0.00 0.02 0.06 0.09 0.12
0.00 0.00 0.00 0.00 0.00 0.00 0.00 0.00 0.00 0.00 0.00 0.00 0.00 0.00 0.00 0.00 0.00 0.00 0.00 0.00 0.00 0.00 0.00 0.00 0.00 0.00 0.00 0.00 0.00 0.00 0.00 0.00 0.00 0.00 0.00 0.00 0.00 0.00 0.00 0.02 0.03 0.02 0.03 0.04 0.03
0.00 0.00 0.00 0.00 0.00 0.00 0.00 0.00 0.00 0.00 0.00 0.00 0.00 0.00 0.00 0.00 0.00 0.00 0.00 0.00 0.00 0.00 0.00 0.00 0.00 0.00 0.00 0.00 0.00 0.00 0.00 0.00 0.00 0.00 0.00 0.00 0.00 0.00 0.00 0.00 0.00 0.01 0.04 0.07 0.09
0.00 0.00 0.00 0.00 0.00 0.00 0.00 0.00 0.00 0.00 0.00 0.00 0.00 0.00 0.00 0.00 0.00 0.00 0.00 0.00 0.00 0.00 0.00 0.00 0.00 0.00 0.00 0.00 0.00 0.00 0.00 0.00 0.00 0.00 0.00 0.00 0.00 0.00 0.00 0.00 0.00 0.00 0.00 0.00 0.00
0.00 0.00 0.00 0.00 0.00 0.00 0.00 0.00 0.00 0.00 0.00 0.00 0.00 0.00 0.00 0.00 0.00 0.00 0.00 0.00 0.00 0.00 0.00 0.00 0.00 0.00 0.00 0.00 0.00 0.00 0.00 0.00 0.00 0.00 0.00 0.00 0.00 0.00 0.00 0.00 0.00 0.00 0.00 0.00 0.00
0.00 0.00 0.00 0.00 0.00 0.00 0.00 0.00 0.00 0.00 0.00 0.00 0.00 0.00 0.00 0.00 0.00 0.00 0.00 0.00 0.00 0.00 0.00 0.00 0.00 0.00 0.00 0.00 0.00 0.00 0.00 0.00 0.00 0.00 0.00 0.00 0.00 0.00 0.00 0.00 0.00 0.00 0.00 0.00 0.00
0.00 0.00 0.00 0.00 0.00 0.00 0.00 0.00 0.00 0.00 0.00 0.00 0.00 0.00 0.00 0.00 0.00 0.00 0.00 0.00 0.00 0.00 0.00 0.00 0.00 0.00 0.00 0.00 0.00 0.00 0.00 0.00 0.00 0.00 0.00 0.00 0.00 0.00 0.00 0.00 0.00 0.00 0.00 0.00 0.00
0.00 0.00 0.00 0.00 0.00 0.00 0.00 0.00 0.00 0.00 0.00 0.00 0.00 0.00 0.00 0.00 0.00 0.00 0.00 0.00 0.00 0.00 0.00 0.00 0.00 0.00 0.00 0.00 0.00 0.00 0.00 0.00 0.00 0.00 0.00 0.00 0.00 0.00 0.00 0.00 0.00 0.00 0.00 0.00 0.00
0.00 0.00 0.00 0.00 0.00 0.00 0.00 0.00 0.00 0.00 0.00 0.00 0.00 0.00 0.00 0.00 0.00 0.00 0.00 0.00 0.00 0.00 0.00 0.00 0.00 0.00 0.00 0.00 0.00 0.00 0.00 0.00 0.00 0.00 0.00 0.00 0.00 0.00 0.00 0.00 0.00 0.00 0.00 0.00 0.00
MSLP
1015.39 1015.19 1014.87 1014.46 1014.18 1013.75 1013.31 1012.90 1012.36 1011.96 1011.73 1011.51 1011.08 1010.47 1010.32 1010.23 1009.63 1009.79 1008.80 1007.93 1007.58 1007.58 1007.73 1007.67 1008.00 1008.19 1008.51 1009.31 1009.75 1010.03 1010.40 1010.44 1009.82 1009.72 1009.74 1009.93 1010.61 1011.28 1011.47 1012.13 1012.57 1013.12 1013.86 1014.70 1015.67
1015.25 1015.01 1014.81 1014.45 1014.08 1013.77 1013.24 1012.86 1012.34 1011.88 1011.59 1011.28 1010.96 1010.34 1010.19 1010.31 1009.72 1008.96 1007.67 1007.51 1007.19 1007.08 1007.71 1007.54 1008.10 1008.29 1008.88 1009.42 1009.73 1010.02 1010.20 1009.59 1008.92 1008.89 1009.07 1009.84 1010.36 1011.06 1011.72 1012.37 1013.24 1013.88 1014.59 1015.34 1015.99
1015.28 1014.95 1014.69 1014.41 1013.94 1013.63 1013.19 1012.77 1012.28 1011.72 1011.47 1011.08 1010.83 1010.27 1010.11 1010.14 1009.48 1008.52 1007.56 1006.76 1006.29 1007.36 1007.58 1007.89 1008.25 1008.40 1009.11 1009.58 1009.99 1010.21 1009.97 1009.24 1008.32 1008.16 1008.79 1009.76 1010.48 1011.06 1011.89 1012.59 1013.00 1013.75 1014.87 1015.66 1016.27
1015.31 1015.00 1014.62 1014.23 1013.83 1013.44 1013.00 1012.59 1012.16 1011.65 1011.31 1010.97 1010.74 1010.26 1010.01 1009.90 1009.21 1007.96 1007.33 1007.03 1007.04 1007.29 1007.88 1008.00 1008.04 1008.65 1009.24 1009.82 1010.22 1010.01 1009.49 1008.85 1008.16 1008.20 1008.98 1009.80 1010.63 1011.48 1011.86 1012.09 1012.53 1013.67 1014.60 1015.60 1016.31
1015.40 1015.03 1014.58 1014.16 1013.74 1013.31 1012.85 1012.47 1012.00 1011.60 1011.17 1010.96 1010.54 1010.25 1009.85 1009.30 1008.07 1007.66 1007.40 1007.31 1007.45 1007.78 1008.15 1007.75 1007.44 1007.95 1008.80 1009.66 1009.91 1009.77 1009.20 1008.55 1007.96 1008.47 1009.16 1010.01 1010.78 1011.44 1012.28 1012.45 1013.31 1014.19 1015.03 1015.66 1016.45
1015.45 1014.99 1014.51 1013.99 1013.53 1013.07 1012.66 1012.31 1011.80 1011.45 1011.04 1010.76 1010.49 1010.27 1009.75 1008.54 1007.24 1007.44 1007.50 1007.77 1007.69 1008.03 1008.21 1007.73 1007.75 1007.69 1008.36 1009.47 1009.74 1009.78 1009.45 1008.93 1008.56 1008.93 1009.56 1010.38 1011.16 1011.56 1012.80 1013.04 1013.75 1014.42 1015.08 1015.74 1016.14
1015.39 1014.95 1014.43 1013.84 1013.32 1012.78 1012.42 1012.03 1011.60 1011.20 1010.78 1010.59 1010.43 1010.15 1009.21 1007.49 1007.06 1007.24 1007.54 1007.63 1007.63 1007.73 1007.95 1007.76 1007.24 1007.68 1008.40 1009.15 1009.83 1009.77 1009.69 1009.26 1009.12 1009.38 1010.00 1010.38 1011.42 1011.85 1012.59 1013.24 1014.02 1014.75 1015.05 1015.67 1016.14
1015.32 1014.85 1014.20 1013.66 1013.11 1012.64 1012.10 1011.67 1011.17 1010.75 1010.41 1010.38 1010.44 1010.11 1008.39 1006.51 1006.85 1007.43 1007.44 1007.43 1007.31 1007.37 1007.38 1007.45 1007.59 1008.07 1008.33 1008.89 1009.54 1009.83 1010.04 1009.91 1009.48 1009.51 1010.26 1010.55 1011.47 1012.06 1012.70 1013.32 1014.25 1014.74 1015.13 1015.67 1015.88
1015.24 1014.62 1014.00 1013.37 1012.87 1012.35 1011.70 1011.23 1010.53 1010.16 1010.16 1010.18 1010.33 1009.79 1007.68 1006.40 1006.57 1006.53 1006.76 1006.98 1006.97 1007.07 1007.28 1007.08 1007.56 1007.93 1008.30 1009.11 1009.85 1010.14 1010.16 1010.04 1009.98 1009.77 1010.05 1010.78 1011.64 1012.11 1012.80 1013.43 1014.16 1014.59 1014.95 1015.25 1015.62
1014.92 1014.27 1013.66 1013.11 1012.60 1011.98 1011.28 1010.69 1010.38 1010.23 1010.35 1010.12 1009.79 1009.39 1007.28 1006.50 1006.10 1006.09 1006.36 1006.59 1006.70 1006.82 1006.97 1007.12 1007.75 1008.18 1008.91 1009.38 1009.85 1010.02 1010.15 1009.98 1009.93 1010.10 1010.25 1010.94 1011.45 1012.06 1012.62 1013.30 1013.78 1014.33 1014.68 1014.96 1015.21
1014.81 1014.03 1013.39 1012.80 1012.25 1011.69 1011.04 1010.64 1011.00 1010.58 1010.04 1009.29 1008.96 1008.39 1007.12 1006.27 1005.82 1005.85 1006.03 1006.48 1006.63 1006.93 1007.50 1007.93 1008.40 1008.53 1008.67 1008.90 1008.86 1009.03 1009.57 1009.72 1009.52 1009.54 1010.13 1010.85 1011.48 1011.95 1012.36 1013.00 1013.71 1014.10 1014.42 1014.73 1014.84
1014.60 1013.88 1013.19 1012.55 1011.99 1011.32 1011.24 1010.76 1010.62 1010.68 1009.89 1008.61 1008.23 1007.71 1006.80 1006.26 1006.07 1005.74 1005.70 1006.44 1006.81 1007.45 1007.83 1008.30 1008.13 1007.81 1007.74 1008.03 1008.42 1008.74 1009.45 1009.60 1009.42 1009.67 1010.39 1011.17 1011.60 1011.85 1012.05 1012.21 1012.88 1013.55 1013.98 1014.28 1014.79
1014.43 1013.79 1013.01 1012.13 1011.52 1011.18 1011.33 1010.48 1010.13 1010.14 1010.07 1008.33 1007.47 1006.84 1006.22 1006.33 1006.24 1005.85 1005.91 1006.39 1007.09 1007.65 1008.09 1008.34 1007.77 1007.69 1007.43 1007.72 1008.24 1008.63 1009.02 1009.37 1009.83 1010.35 1011.02 1011.55 1012.17 1012.15 1012.15 1012.43 1012.97 1013.26 1013.61 1013.93 1014.25
1014.37 1013.67 1012.99 1012.03 1011.52 1011.85 1010.81 1010.05 1009.92 1009.97 1010.24 1008.31 1007.04 1005.69 1005.85 1005.90 1006.11 1005.59 1005.71 1006.32 1007.25 1007.66 1008.17 1008.17 1007.46 1007.43 1007.33 1007.77 1008.34 1008.68 1008.93 1009.45 1010.34 1011.17 1011.87 1012.01 1012.98 1012.56 1012.40 1012.48 1012.74 1013.14 1013.42 1013.80 1013.95
1014.02 1013.62 1013.10 1012.93 1012.68 1011.79 1010.47 1009.99 1009.71 1009.77 1009.91 1007.67 1006.34 1005.29 1005.60 1005.96 1005.97 1005.78 1005.76 1006.18 1007.15 1007.76 1008.24 1008.06 1007.60 1007.51 1007.64 1007.94 1008.47 1009.15 1009.30 1010.33 1011.12 1012.30 1012.87 1013.27 1013.78 1013.71 1012.78 1013.09 1012.49 1012.80 1013.13 1013.64 1013.99
1013.45 1013.25 1012.94 1012.93 1012.69 1010.47 1010.05 1009.89 1009.79 1010.66 1009.23 1007.25 1006.07 1005.76 1006.07 1006.10 1006.07 1006.14 1006.08 1006.40 1007.39 1008.04 1008.33 1008.32 1007.77 1007.64 1007.50 1007.88 1008.38 1009.22 1010.31 1011.69 1012.93 1013.72 1014.70 1014.85 1014.89 1014.81 1014.52 1014.12 1013.40 1013.05 1013.43 1013.96 1014.46
1012.76 1012.36 1012.59 1012.11 1011.26 1010.29 1010.07 1010.29 1011.27 1011.03 1009.04 1007.81 1006.82 1006.42 1006.48 1006.68 1006.67 1006.60 1006.91 1007.55 1008.30 1009.02 1009.42 1009.11 1008.43 1007.89 1007.68 1008.29 1009.08 1010.02 1011.86 1013.70 1015.08 1015.69 1015.88 1015.69 1015.59 1015.16 1014.63 1013.85 1012.86 1012.86 1013.65 1014.39 1014.74
1012.30 1011.45 1011.36 1011.12 1010.52 1010.32 1010.38 1011.00 1011.63 1010.52 1009.61 1008.14 1007.54 1007.29 1007.00 1006.97 1007.14 1007.38 1007.89 1008.59 1008.80 1009.31 1010.23 1009.95 1009.46 1008.54 1008.23 1008.69 1009.80 1011.23 1012.44 1014.16 1015.82 1016.97 1016.70 1016.10 1016.20 1015.58 1014.78 1014.20 1013.63 1013.62 1014.08 1014.57 1015.40
1011.87 1011.40 1011.54 1010.48 1010.34 1010.66 1010.95 1011.98 1011.44 1010.76 1009.72 1008.81 1008.09 1007.90 1007.73 1007.45 1007.54 1007.83 1008.38 1009.03 1009.10 1009.34 1009.91 1010.36 1009.90 1009.09 1008.81 1009.09 1010.06 1011.90 1013.19 1014.22 1015.98 1017.62 1017.55 1017.12 1016.39 1015.75 1015.63 1015.30 1015.21 1015.09 1015.18 1015.54 1015.72
1012.67 1012.21 1011.39 1010.55 1010.39 1010.61 1011.38 1011.93 1011.57 1010.66 1009.61 1009.01 1008.61 1008.16 1008.22 1008.10 1008.34 1008.44 1008.79 1008.97 1009.18 1009.33 1009.52 1010.70 1010.73 1010.15 1009.77 1010.05 1010.90 1011.65 1013.38 1014.86 1016.30 1017.99 1018.61 1018.04 1017.43 1017.40 1016.85 1016.80 1016.51 1016.51 1016.58 1016.64 1016.50
1012.62 1012.31 1011.37 1010.81 1010.70 1011.30 1012.47 1012.16 1011.20 1010.03 1009.47 1009.07 1008.85 1008.70 1008.52 1008.43 1008.70 1009.13 1009.23 1009.14 1009.17 1009.72 1009.93 1010.83 1011.33 1011.60 1011.07 1011.91 1012.25 1012.72 1013.89 1015.64 1017.11 1018.14 1018.62 1019.22 1018.68 1018.37 1018.16 1017.85 1017.60 1017.65 1017.75 1017.70 1017.89
1013.37 1013.17 1011.27 1010.94 1011.82 1013.08 1012.73 1011.71 1010.71 1009.72 1009.12 1009.04 1008.93 1009.00 1008.88 1008.92 1009.13 1009.24 1009.37 1009.37 1009.37 1009.61 1010.74 1011.59 1012.46 1013.19 1013.24 1012.80 1012.88 1013.13 1014.32 1015.49 1017.14 1018.87 1019.11 1018.97 1019.64 1019.14 1018.86 1018.73 1018.42 1018.62 1018.70 1018.86 1018.97
1014.61 1013.81 1011.50 1011.30 1012.72 1013.32 1012.48 1011.51 1010.41 1009.65 1009.22 1008.94 1008.72 1008.71 1008.97 1009.25 1009.78 1009.52 1009.56 1009.64 1009.75 1010.06 1010.61 1011.52 1013.35 1014.39 1014.35 1013.84 1013.46 1013.92 1014.61 1015.63 1016.68 1017.58 1019.16 1019.56 1020.22 1019.68 1019.63 1019.52 1019.57 1019.53 1019.74 1019.71 1019.84
1015.30 1014.74 1013.30 1012.96 1013.53 1013.30 1012.82 1011.56 1010.40 1009.00 1008.80 1008.47 1008.41 1008.45 1009.15 1009.62 1009.95 1010.08 1009.97 1009.95 1010.08 1010.58 1011.11 1011.52 1014.44 1014.59 1014.85 1014.77 1014.67 1014.82 1015.09 1015.62 1016.56 1017.83 1019.13 1019.42 1019.95 1020.34 1020.36 1020.35 1020.48 1020.48 1020.66 1020.72 1020.81
1015.66 1016.15 1015.72 1014.82 1014.33 1013.94 1013.17 1011.88 1010.86 1009.81 1008.71 1008.29 1008.35 1008.11 1008.60 1009.72 1010.11 1010.22 1010.04 1010.55 1010.96 1011.32 1012.03 1012.95 1015.34 1015.59 1015.70 1015.34 1015.11 1015.39 1015.62 1015.90 1016.60 1017.53 1018.35 1019.25 1020.06 1020.52 1020.80 1020.95 1021.25 1021.24 1021.21 1021.19 1021.39
1016.53 1016.56 1015.88 1015.38 1014.79 1014.00 1013.33 1012.36 1011.49 1010.29 1009.35 1008.52 1008.43 1007.38 1008.05 1008.77 1008.48 1009.64 1009.87 1010.57 1011.02 1012.03 1013.08 1014.28 1016.06 1016.34 1016.71 1016.13 1015.79 1016.15 1016.34 1016.57 1017.06 1018.11 1018.81 1019.42 1020.52 1020.79 1021.26 1021.55 1021.99 1022.21 1022.40 1022.68 1022.88
1016.79 1016.48 1016.34 1015.89 1015.19 1014.43 1013.84 1012.78 1011.48 1010.83 1009.25 1008.68 1008.03 1007.36 1008.45 1008.81 1008.40 1009.49 1010.02 1010.37 1011.12 1012.48 1014.08 1015.24 1016.52 1017.43 1017.69 1017.13 1016.72 1017.19 1017.42 1017.47 1017.86 1018.14 1018.53 1019.61 1020.12 1020.93 1021.68 1022.10 1022.50 1022.88 1023.12 1023.37 1023.51
Thickness
5749 5754 5758 5762 5765 5770 5775 5779 5784 5787 5789 5791 5794 5801 5804 5806 5812 5810 5810 5821 5824 5827 5824 5821 5818 5819 5818 5805 5804 5799 5769 5758 5769 5769 5776 5792 5777 5784 5790 5779 5783 5784 5777 5774 5772
5750 5754 5758 5762 5767 5770 5775 5780 5784 5789 5792 5794 5796 5803 5806 5806 5812 5813 5829 5830 5833 5833 5820 5816 5811 5817 5806 5805 5802 5787 5768 5783 5799 5794 5790 5794 5789 5785 5779 5776 5771 5771 5776 5775 5771
5749 5754 5758 5763 5768 5772 5776 5781 5786 5791 5794 5798 5799 5805 5808 5809 5813 5815 5832 5838 5844 5835 5829 5824 5820 5817 5802 5807 5800 5791 5782 5799 5811 5812 5808 5795 5791 5793 5777 5769 5777 5770 5768 5771 5767
5748 5752 5758 5763 5769 5773 5778 5783 5787 5792 5796 5800 5801 5806 5810 5810 5789 5825 5835 5837 5837 5836 5826 5819 5817 5803 5796 5791 5799 5789 5802 5808 5816 5817 5806 5794 5796 5783 5786 5786 5792 5786 5780 5773 5767
5746 5751 5757 5762 5768 5773 5779 5784 5788 5793 5797 5800 5804 5807 5811 5807 5814 5832 5835 5834 5835 5832 5819 5819 5821 5815 5798 5795 5800 5798 5802 5818 5821 5815 5807 5803 5789 5785 5782 5792 5790 5785 5779 5774 5769
5745 5750 5757 5763 5768 5774 5780 5784 5789 5794 5798 5802 5805 5807 5810 5800 5834 5835 5835 5832 5831 5825 5822 5826 5821 5826 5810 5798 5795 5803 5802 5811 5817 5809 5806 5790 5788 5791 5782 5790 5784 5782 5778 5776 5774
5745 5750 5756 5763 5769 5775 5780 5785 5790 5795 5799 5802 5805 5809 5808 5815 5836 5835 5835 5832 5835 5832 5824 5830 5836 5824 5816 5801 5804 5806 5795 5808 5810 5808 5797 5802 5783 5782 5790 5788 5780 5777 5778 5777 5776
5744 5750 5757 5764 5770 5775 5781 5787 5793 5797 5802 5802 5803 5806 5802 5839 5837 5832 5832 5829 5838 5839 5837 5839 5835 5822 5816 5817 5805 5795 5789 5775 5804 5807 5803 5799 5766 5787 5794 5786 5776 5777 5777 5775 5777
5744 5750 5757 5764 5770 5776 5784 5789 5796 5800 5802 5802 5802 5802 5803 5838 5828 5837 5837 5826 5830 5833 5834 5840 5829 5815 5817 5794 5779 5783 5766 5775 5786 5806 5803 5796 5775 5791 5795 5787 5779 5778 5779 5779 5778
5745 5752 5759 5764 5770 5778 5786 5792 5795 5797 5798 5801 5803 5795 5815 5813 5830 5836 5839 5835 5826 5824 5821 5820 5805 5794 5790 5782 5753 5768 5771 5779 5778 5794 5800 5788 5784 5789 5793 5789 5785 5781 5780 5781 5779
5743 5752 5759 5766 5771 5778 5785 5789 5784 5784 5792 5794 5796 5796 5808 5826 5836 5830 5834 5826 5824 5813 5789 5799 5783 5772 5785 5791 5797 5797 5785 5785 5793 5804 5794 5787 5784 5789 5796 5791 5785 5783 5780 5779 5782
5741 5749 5756 5763 5770 5777 5779 5783 5782 5782 5772 5797 5797 5800 5812 5823 5806 5821 5835 5809 5805 5787 5794 5781 5775 5800 5805 5800 5797 5793 5781 5782 5800 5802 5795 5783 5784 5792 5797 5799 5797 5791 5789 5787 5783
5740 5746 5753 5762 5769 5773 5773 5781 5785 5785 5764 5783 5797 5800 5808 5812 5800 5804 5820 5808 5794 5785 5784 5773 5790 5799 5803 5797 5789 5791 5778 5786 5786 5791 5792 5783 5773 5782 5795 5797 5794 5798 5797 5795 5791
5738 5744 5750 5758 5764 5761 5771 5780 5782 5780 5733 5761 5783 5798 5806 5808 5793 5820 5821 5808 5791 5780 5777 5778 5797 5795 5793 5790 5787 5780 5799 5791 5779 5771 5751 5782 5740 5767 5783 5787 5792 5789 5791 5792 5795
5737 5741 5746 5747 5749 5757 5772 5775 5779 5771 5700 5770 5782 5814 5802 5790 5797 5802 5817 5804 5780 5781 5781 5775 5785 5786 5783 5787 5788 5781 5792 5785 5780 5757 5758 5758 5742 5753 5774 5772 5786 5792 5793 5793 5795
5739 5740 5743 5744 5745 5764 5769 5771 5768 5712 5699 5759 5779 5776 5776 5783 5787 5794 5797 5801 5793 5778 5778 5777 5792 5791 5792 5791 5792 5787 5775 5757 5743 5737 5724 5735 5731 5731 5745 5758 5777 5787 5788 5787 5787
5740 5743 5741 5744 5753 5761 5762 5755 5704 5689 5743 5748 5756 5766 5763 5761 5768 5776 5772 5765 5752 5740 5747 5760 5770 5784 5794 5780 5782 5769 5745 5711 5714 5707 5710 5724 5723 5746 5756 5774 5786 5788 5784 5782 5782
5739 5745 5745 5746 5751 5753 5750 5723 5694 5714 5715 5745 5748 5747 5745 5755 5759 5758 5751 5742 5758 5749 5724 5727 5730 5769 5782 5777 5762 5751 5746 5709 5702 5690 5706 5725 5707 5724 5760 5770 5777 5781 5780 5780 5772
5735 5737 5736 5744 5746 5743 5728 5686 5692 5703 5725 5729 5737 5732 5734 5747 5750 5750 5742 5735 5746 5748 5734 5725 5735 5767 5775 5777 5770 5748 5729 5737 5695 5690 5696 5710 5727 5742 5747 5754 5759 5762 5766 5763 5765
5721 5722 5729 5734 5734 5728 5701 5686 5696 5709 5723 5724 5717 5729 5717 5731 5734 5734 5731 5747 5747 5752 5755 5734 5722 5750 5761 5765 5756 5756 5738 5716 5695 5685 5681 5696 5703 5705 5725 5725 5739 5741 5746 5748 5755
5713 5712 5719 5721 5719 5701 5675 5674 5691 5710 5718 5714 5713 5715 5722 5728 5724 5723 5722 5745 5753 5741 5744 5733 5723 5731 5739 5725 5727 5728 5722 5698 5688 5680 5675 5667 5686 5708 5708 5720 5723 5728 5731 5733 5734
5695 5689 5710 5709 5683 5653 5667 5678 5695 5705 5716 5710 5714 5712 5715 5718 5718 5720 5723 5734 5744 5747 5731 5728 5706 5695 5715 5729 5730 5731 5719 5703 5688 5686 5668 5675 5673 5700 5706 5711 5719 5721 5722 5723 5726
5675 5673 5698 5697 5659 5658 5668 5680 5691 5697 5700 5706 5709 5713 5717 5715 5708 5718 5724 5737 5741 5741 5730 5729 5695 5678 5690 5706 5722 5715 5718 5697 5687 5682 5676 5673 5666 5695 5696 5698 5703 5706 5710 5713 5714
5666 5665 5673 5670 5657 5663 5662 5668 5674 5698 5699 5707 5713 5715 5711 5709 5707 5707 5717 5729 5736 5733 5735 5728 5681 5691 5676 5690 5697 5704 5707 5704 5693 5678 5666 5669 5671 5681 5684 5685 5687 5689 5692 5694 5694
5655 5648 5648 5645 5648 5648 5651 5659 5664 5672 5695 5703 5706 5712 5711 5701 5701 5705 5715 5720 5727 5729 5720 5714 5683 5688 5687 5692 5699 5692 5694 5699 5702 5684 5685 5672 5667 5669 5675 5676 5677 5679 5682 5682 5681
5643 5638 5637 5636 5636 5645 5644 5650 5653 5665 5680 5688 5694 5717 5714 5706 5718 5710 5714 5717 5722 5718 5709 5696 5674 5686 5679 5682 5689 5680 5680 5682 5678 5671 5666 5668 5658 5666 5664 5664 5663 5663 5663 5660 5658
5635 5635 5630 5629 5628 5635 5636 5646 5654 5661 5686 5693 5702 5715 5713 5716 5725 5717 5715 5716 5717 5711 5693 5684 5666 5661 5662 5664 5674 5662 5662 5667 5665 5666 5666 5656 5656 5657 5652 5652 5650 5647 5645 5643 5641